Date,TemperatureHighF,TemperatureAvgF,TemperatureLowF,DewpointHighF,DewpointAvgF,DewpointLowF,HumidityHigh,HumidityAvg,HumidityLow,PressureMaxIn,PressureMinIn,WindSpeedMaxMPH,WindSpeedAvgMPH,GustSpeedMaxMPH,PrecipitationSumIn
2013-4-1,66.9,49.1,36.1,57.5,43.2,21.1,98,82,51,29.63,29.33,9,2,0,0.02
2013-4-2,46.4,35.9,24.1,29.8,22.4,19.5,86,59,39,29.80,29.64,8,2,0,0.00
2013-4-3,49.6,36.7,22.6,30.9,21.8,18.0,87,56,39,30.02,29.81,8,2,0,0.00
2013-4-4,56.1,41.7,25.3,38.1,28.7,19.6,86,61,43,30.11,29.79,5,2,0,0.00
2013-4-5,66.2,49.4,40.1,42.7,34.6,26.7,92,60,33,29.79,29.42,8,2,0,0.00
2013-4-6,55.6,43.8,32.9,34.7,26.0,21.4,86,53,27,30.03,29.73,7,2,0,0.00
2013-4-7,66.4,50.7,33.3,52.2,42.8,32.2,98,77,45,30.02,29.69,7,2,0,0.00
2013-4-8,78.3,59.6,41.7,57.1,51.9,41.2,98,79,42,29.78,29.69,8,1,0,0.00
2013-4-9,85.3,66.4,48.2,65.3,53.3,45.5,98,69,27,29.69,29.59,8,1,0,0.00
2013-4-10,78.8,62.5,54.1,64.7,58.4,53.4,98,88,62,29.66,29.51,8,1,0,0.45
2013-4-11,61.2,55.8,47.7,60.6,55.2,47.2,98,98,98,29.74,29.47,8,2,0,0.02
2013-4-12,48.6,44.1,42.1,48.1,43.6,41.6,98,98,98,29.72,29.42,10,4,0,0.87
2013-4-13,61.7,48.7,37.0,55.5,45.5,36.5,98,90,66,29.69,29.46,6,1,0,0.04
2013-4-14,60.6,51.4,40.3,50.9,43.5,39.4,98,77,52,29.93,29.68,11,2,0,0.00
2013-4-15,56.3,49.0,41.0,49.9,43.1,37.0,98,81,65,30.10,29.93,7,2,0,0.00
2013-4-16,72.1,58.5,45.3,71.5,58.0,44.8,98,98,98,30.09,29.81,8,2,0,0.00
2013-4-17,74.7,61.6,47.3,59.7,52.5,39.4,98,77,28,30.02,29.81,6,1,0,0.01
2013-4-18,55.8,50.9,43.2,55.2,50.4,42.7,98,98,98,30.05,29.83,8,2,0,0.01
2013-4-19,80.1,72.9,62.6,79.5,72.3,62.0,98,98,98,29.65,29.32,8,4,0,0.23
2013-4-20,60.3,53.0,45.9,59.5,46.1,34.8,98,79,53,30.02,29.40,8,2,0,0.18
2013-4-21,54.9,40.7,33.3,40.4,34.7,29.4,98,80,58,30.34,30.02,7,2,0,0.00
2013-4-22,55.4,44.8,31.1,52.2,42.3,30.6,98,92,68,30.37,30.20,8,3,0,0.00
2013-4-23,52.5,45.5,40.1,52.0,45.0,39.6,98,98,98,30.19,29.83,7,2,0,0.00
2013-4-24,74.7,51.1,34.2,68.5,50.1,33.7,98,97,76,29.83,29.50,6,2,0,0.00
2013-4-25,67.5,55.2,42.1,60.0,44.6,36.2,98,71,33,29.99,29.56,7,2,0,0.00
2013-4-26,68.2,52.3,35.8,52.0,41.3,35.3,98,71,32,30.12,29.98,6,1,0,0.00
2013-4-27,71.6,55.4,36.1,48.4,42.9,35.6,98,67,37,30.15,29.99,5,1,0,0.01
2013-4-28,70.9,52.0,37.0,57.2,44.4,36.5,98,79,45,30.03,29.90,4,1,0,0.01
2013-4-29,54.9,53.4,52.0,54.3,52.9,51.5,98,98,95,29.95,29.89,5,1,0,0.24
2013-4-30,66.6,54.7,41.4,60.9,51.5,40.0,98,91,42,30.06,29.92,7,1,0,0.00